Flag for China Weather past 2 weeks in Guangzhou, Guangdong, China

Now
79 °F

Clear.


Feels Like: 81 °F
Forecast: 74 / 88 °F
Wind: 10 mph from North

Location: Canton Airport

Current Time: Sep 20, 2014 at 4:46:25 AM

Latest Report: Sep 20, 2014 at 4:00 AM


Visibility: 10 mi

Pressure: 29.65 "Hg

Humidity: 74%

Dew point: 70 °F

Location of GuangzhouLocation

Historic Weather in Guangzhou — Graph

°F

Guangzhou temperature yesterday

Maximum temperature yesterday: 97 °F (at 3:30 PM)
Minimum temperature yesterday: 81 °F (at 4:00 AM)
Average temperature yesterday: 88 °F

Past Weeks' High & Low Weather Summary

 TemperatureHumidityPressure
High97 °F (Sep 7, 2:00 PM)100% (Sep 9, 4:30 PM)29.95 "Hg (Sep 9, 4:30 PM)
Low77 °F (Sep 6, 5:30 AM)44% (Sep 7, 3:00 PM)29.50 "Hg (Sep 15, 4:30 PM)
Average85 °F77%29.73 "Hg
* Reported Sep 5 3:00 AM — Sep 20 3:30 AM, Guangzhou, Weather by CustomWeather, © 2014

Note: Actual official high and low records may vary slightly from our data, if they occured in-between our weather recording intervals... More about our weather records

Advertising

Guangzhou weather history for previous 24 hours

 ConditionsComfort  
Time TempWeatherWind HumidityBarometerVisibility
3:30 AM
Sep 20
79 °FClear.13 mph74%29.65 "Hg10 mi
3:00 AM79 °FClear.13 mph74%29.68 "Hg10 mi
2:30 AM81 °FClear.13 mph70%29.68 "Hg10 mi
2:00 AM81 °FPassing clouds.13 mph70%29.68 "HgN/A
1:30 AM81 °FPassing clouds.10 mph74%29.68 "HgN/A
1:00 AM82 °FPassing clouds.10 mph70%29.68 "HgN/A
12:30 AM82 °FClear.10 mph70%29.68 "Hg10 mi
12:00 AM82 °FClear.10 mph70%29.71 "Hg10 mi
11:30 PM
Sep 19
84 °FClear.13 mph66%29.71 "Hg10 mi
11:00 PM84 °FClear.13 mph70%29.71 "Hg10 mi
10:30 PM86 °FClear.10 mph66%29.71 "Hg10 mi
10:00 PM86 °FClear.10 mph70%29.71 "Hg10 mi
9:30 PM88 °FClear.13 mph66%29.71 "Hg10 mi
9:00 PM88 °FClear.10 mph70%29.71 "Hg10 mi
8:30 PM90 °FClear.6 mph67%29.68 "Hg10 mi
8:00 PM90 °FClear.6 mph67%29.68 "Hg10 mi
7:30 PM90 °FClear.8 mph63%29.65 "Hg10 mi
7:00 PM91 °FPassing clouds.10 mph63%29.65 "HgN/A
6:30 PM91 °FPassing clouds.8 mph59%29.65 "HgN/A
6:00 PM93 °FScattered clouds.8 mph59%29.65 "HgN/A
5:30 PM93 °FScattered clouds.10 mph56%29.65 "HgN/A
5:00 PM95 °FScattered clouds.8 mph53%29.65 "HgN/A
4:30 PM95 °FScattered clouds.10 mph50%29.65 "HgN/A
4:00 PM95 °FScattered clouds.10 mph50%29.65 "HgN/A
3:30 PM97 °FScattered clouds.10 mph47%29.65 "HgN/A
3:00 PM95 °FPartly sunny.10 mph50%29.65 "HgN/A
2:30 PM95 °FPartly sunny.13 mph53%29.68 "HgN/A
2:00 PM95 °FPartly sunny.8 mph56%29.68 "HgN/A
1:30 PM95 °FPartly sunny.10 mph60%29.71 "HgN/A
1:00 PM95 °FPartly sunny.8 mph60%29.71 "HgN/A
12:30 PM93 °FPartly sunny.8 mph59%29.74 "HgN/A
12:00 PM93 °FPartly sunny.6 mph63%29.74 "HgN/A
11:30 AM91 °FPartly sunny.3 mph63%29.77 "HgN/A
11:00 AM91 °FPartly sunny.6 mph67%29.77 "HgN/A
10:30 AM91 °FPassing clouds.6 mph63%29.80 "HgN/A
10:00 AM90 °FPassing clouds.3 mph67%29.80 "HgN/A
9:30 AM88 °FClear.3 mph70%29.80 "Hg5 mi
9:00 AM88 °FClear.6 mph70%29.80 "Hg4 mi
8:30 AM86 °FFog.8 mph75%29.80 "Hg3 mi
8:00 AM84 °FFog.3 mph79%29.80 "Hg2 mi
7:30 AM82 °FFog.1 mph89%29.80 "Hg2 mi
7:00 AM81 °FFog.No wind94%29.80 "Hg2 mi
6:30 AM81 °FFog.1 mph89%29.80 "Hg2 mi
6:00 AM81 °FPassing clouds.1 mph94%29.77 "Hg4 mi
5:30 AM81 °FClear.No wind94%29.77 "Hg4 mi
5:00 AM81 °FClear.1 mph89%29.77 "Hg4 mi
4:30 AM81 °FClear.No wind94%29.77 "Hg4 mi
4:00 AM81 °FClear.1 mph94%29.77 "Hg5 mi
Weather by CustomWeather, © 2014

See weather overviewHow to use our weather pages